[[{"header":{"parameterUnit":"m.s-1","parameterCategory":1,"la1":30.2991,"la2":30.254,"lo1":-89.0895,"lo2":-89.0444,"dy":0.0017,"dx":0.0017,"nx":28,"ny":28,"refTime":"2024-07-12T09:00:00:Z","depth":0,"parameterNumber":2,"parameterNumberName":"U-component_of_WINDS"},"data":[0,0,0,0,0,0,0,0,0,0,0,0,0,0,0,0,0,0,0,0,0,0,0,0,0,0,0,0,0,0,0,0,0,0,0,0,0,0,0,0,0,0,0,0,0,0,0,0,0,0,0,0,0,0,0,0,0,0,1.5702,1.5702,0,1.5756,1.5757,1.5758,1.576,1.576,1.5759,1.5759,1.5816,1.5818,1.582,0,0,0,0,0,0,0,0,0,0,0,0,0,1.5602,1.5603,1.5701,1.5702,1.5703,1.5756,1.5757,1.5758,1.5761,1.576,1.5759,1.5758,1.5815,1.5818,1.5821,0,0,0,0,0,0,0,0,0,0,0,0,0,1.565,1.5604,1.5701,1.5711,1.5712,1.5756,1.5757,1.5758,1.5761,1.576,1.5759,1.5758,1.5815,1.5818,1.5821,1.586,0,0,1.5831,1.5832,0,0,0,0,0,0,0,0,1.5647,1.5653,1.5709,1.571,1.5712,1.5751,1.5743,1.5792,1.5761,1.5742,1.5759,1.5757,1.5795,1.58,1.5812,1.5863,1.5865,1.5831,1.5833,1.5834,1.5835,0,0,0,0,0,0,0,1.5644,1.5651,1.5723,1.5709,1.5711,1.5713,1.5719,1.5752,1.5774,1.5744,1.5744,1.5751,1.5796,1.5809,1.5814,1.5866,1.5831,1.5834,1.5836,1.5837,1.5953,1.5954,0,0,0,0,0,0,1.5638,1.5648,1.5722,1.5725,1.5676,1.5716,1.5722,1.5739,1.5773,1.5777,1.5751,1.5751,1.5804,1.581,1.5816,1.5865,1.5834,1.5837,1.5839,1.5952,1.5953,1.5954,0,0,0,0,0,0,1.5636,1.5645,1.5719,1.5687,1.5696,1.5718,1.5738,1.5741,1.5754,1.5779,1.5783,1.5761,1.5804,1.5811,1.5849,1.5867,1.5839,1.5842,1.595,1.5952,1.5954,1.5962,0,0,0,0,0,0,1.5633,1.5644,1.5658,1.5687,1.5698,1.5751,1.5739,1.5742,1.5759,1.5759,1.5789,1.5793,1.5804,1.5844,1.5852,1.5871,1.5844,1.5949,1.5951,1.5953,1.596,1.5964,1.5967,0,0,0,0,0,1.563,1.5658,1.5659,1.5668,1.5716,1.5752,1.5758,1.577,1.5761,1.5776,1.5792,1.5792,1.5864,1.5848,1.5857,1.5877,1.5948,1.595,1.5953,1.5959,1.5963,1.5967,0,0,0,0,0,0,1.5631,1.5662,1.5663,1.5702,1.5724,1.5752,1.5772,1.5774,1.5799,1.5798,1.5811,1.5818,1.5856,1.587,1.5852,1.5917,1.5905,1.5909,1.5906,1.5911,1.5914,1.591,1.5847,0,0,0,0,0,1.5636,1.5662,1.5688,1.572,1.5731,1.5749,1.5765,1.5772,1.5796,1.5805,1.5824,1.5848,1.5876,1.5894,1.5921,1.5963,1.597,1.5981,1.5984,1.5986,1.599,1.6015,1.602,1.5963,1.5963,1.5963,0,0,1.5646,1.5666,1.5682,1.572,1.5739,1.5766,1.5757,1.5786,1.5807,1.581,1.5847,1.5862,1.5889,1.593,1.5948,1.5943,1.6008,1.599,1.5992,1.5994,1.6018,1.6023,1.6028,1.5965,1.5964,1.5964,0,0,1.5679,1.5696,1.5726,1.5744,1.5772,1.5784,1.5791,1.5819,1.5829,1.5867,1.587,1.5895,1.5943,1.5963,1.5979,1.6021,1.6022,1.603,1.6047,1.6071,1.6075,1.6079,1.6095,1.6101,1.6033,1.6033,1.6033,0,1.5688,1.5729,1.574,1.577,1.5787,1.5791,1.5822,1.5839,1.5874,1.5887,1.588,1.5941,1.5959,1.6005,1.6015,1.6028,1.6037,1.6026,1.6073,1.6078,1.6082,1.6097,1.6103,1.6034,1.6034,1.6034,1.6034,0,1.574,1.5768,1.5788,1.5822,1.5842,1.5872,1.5888,1.5907,1.5913,1.5926,1.5965,1.5988,1.602,1.6032,1.6037,1.6079,1.6074,1.607,1.6058,1.6088,1.6102,1.6108,1.6035,1.6035,1.6035,1.6034,0,0,1.5774,1.5815,1.5822,1.5838,1.587,1.5892,1.5923,1.5954,1.5971,1.5995,1.6022,1.6063,1.606,1.6078,1.6086,1.6107,1.614,1.6101,1.6102,1.6108,1.6189,1.6192,1.6198,1.6142,1.6143,1.6144,1.6187,0,1.5811,1.5865,1.5876,1.5923,1.595,1.5955,1.5982,1.6005,1.6019,1.6044,1.606,1.6089,1.6082,1.6094,1.6114,1.6132,1.6157,1.6129,1.6167,1.6169,1.6161,1.6206,1.6209,1.6249,1.6193,1.6193,1.6194,0,1.5861,1.5887,1.5936,1.5965,1.5977,1.6001,1.6031,1.6055,1.6082,1.6091,1.6112,1.6118,1.6152,1.6138,1.6185,1.6165,1.6182,1.6193,1.6195,1.6199,1.6183,1.6212,1.6261,1.6267,1.6203,1.6203,1.6202,0,1.5882,1.5929,1.5965,1.5979,1.6013,1.603,1.6046,1.6071,1.609,1.6117,1.6129,1.616,1.6177,1.6201,1.6216,1.6204,1.6262,1.6249,1.6271,1.6271,1.6283,1.6282,1.6336,1.6293,1.6293,1.6293,1.6292,0,1.5922,1.5953,1.5976,1.5998,1.6032,1.6046,1.608,1.6095,1.6118,1.6145,1.6151,1.6176,1.6194,1.6221,1.6233,1.627,1.6278,1.6287,1.629,1.6286,1.6285,1.6297,1.6295,1.6294,1.6294,1.6294,1.6293,0,1.5952,1.5968,1.6008,1.6038,1.6046,1.607,1.6096,1.6119,1.6133,1.6166,1.6175,1.6198,1.623,1.6248,1.6288,1.6297,1.6339,1.634,1.633,1.6331,1.6352,1.635,1.6416,1.6426,1.6376,1.6376,1.6377,0,1.5977,1.6,1.6033,1.605,1.6066,1.6094,1.6114,1.6129,1.6149,1.6182,1.62,1.6233,1.626,1.6313,1.6333,1.6365,1.6368,1.6389,1.6372,1.6369,1.6369,1.6367,1.637,1.6391,1.6392,1.6392,1.6393,0,1.6019,1.6026,1.6053,1.6084,1.6107,1.6131,1.6156,1.617,1.619,1.6212,1.6245,1.6266,1.6309,1.6342,1.6375,1.6392,1.6396,1.6398,1.6405,1.6402,1.6395,1.64,1.6338,1.6396,1.6396,1.6395,1.6395,1.6395,1.6047,1.6069,1.6095,1.6126,1.6146,1.6169,1.6192,1.6209,1.6237,1.6272,1.628,1.6316,1.6343,1.6389,1.6407,1.6436,1.6431,1.6441,1.6444,1.6446,1.6447,1.639,1.6442,1.6442,1.6442,1.6442,1.6442,0,1.6091,1.6108,1.6136,1.617,1.6195,1.6196,1.6224,1.6244,1.6275,1.63,1.6327,1.6367,1.6399,1.6423,1.6456,1.6475,1.6478,1.6483,1.6482,1.6487,1.6449,1.644,1.6481,1.6481,1.6481,1.6481,1.6481,1.6481,1.6116,1.6153,1.6164,1.6211,1.6229,1.6263,1.6279,1.6301,1.6321,1.6365,1.6392,1.6407,1.6432,1.6468,1.6498,1.6504,1.6517,1.6522,1.6529,1.6493,1.6489,1.6485,1.6477,1.6525,1.6525,1.6564,1.6565,1.6565]},{"header":{"parameterUnit":"m.s-1","parameterCategory":1,"la1":30.2991,"la2":30.254,"lo1":-89.0895,"lo2":-89.0444,"dy":0.0017,"dx":0.0017,"nx":28,"ny":28,"refTime":"2024-07-12T09:00:00:Z","depth":0,"parameterNumber":3,"parameterNumberName":"V-component_of_WINDS"},"data":[0,0,0,0,0,0,0,0,0,0,0,0,0,0,0,0,0,0,0,0,0,0,0,0,0,0,0,0,0,0,0,0,0,0,0,0,0,0,0,0,0,0,0,0,0,0,0,0,0,0,0,0,0,0,0,0,0,0,-1.701,-1.701,0,-1.7089,-1.709,-1.7091,-1.7119,-1.7119,-1.7118,-1.7118,-1.72,-1.7202,-1.7205,0,0,0,0,0,0,0,0,0,0,0,0,0,-1.6883,-1.6885,-1.7009,-1.701,-1.7011,-1.7089,-1.709,-1.7091,-1.7119,-1.7119,-1.7118,-1.7118,-1.7199,-1.7202,-1.7205,0,0,0,0,0,0,0,0,0,0,0,0,0,-1.6948,-1.6886,-1.7009,-1.7035,-1.7038,-1.7089,-1.709,-1.7091,-1.7119,-1.7119,-1.7118,-1.7118,-1.7198,-1.7202,-1.7205,-1.7237,0,0,-1.7216,-1.7218,0,0,0,0,0,0,0,0,-1.6944,-1.6952,-1.703,-1.7033,-1.7037,-1.7094,-1.7075,-1.714,-1.7119,-1.7088,-1.7118,-1.7118,-1.7165,-1.7171,-1.7187,-1.7241,-1.7244,-1.7217,-1.7219,-1.7221,-1.7222,0,0,0,0,0,0,0,-1.6939,-1.6949,-1.7041,-1.7031,-1.7035,-1.7043,-1.7051,-1.7088,-1.7128,-1.7091,-1.7093,-1.7102,-1.7166,-1.7183,-1.7189,-1.7245,-1.7217,-1.722,-1.7222,-1.7224,-1.7331,-1.7332,0,0,0,0,0,0,-1.693,-1.6945,-1.7038,-1.7043,-1.6988,-1.7045,-1.7055,-1.7076,-1.7128,-1.7135,-1.7102,-1.7103,-1.7177,-1.7185,-1.7192,-1.7234,-1.722,-1.7224,-1.7226,-1.733,-1.7331,-1.7332,0,0,0,0,0,0,-1.6928,-1.6939,-1.7035,-1.6995,-1.7008,-1.7048,-1.7071,-1.7078,-1.7095,-1.7136,-1.7144,-1.7112,-1.7177,-1.7187,-1.7226,-1.7237,-1.7226,-1.7229,-1.733,-1.7331,-1.7332,-1.7317,0,0,0,0,0,0,-1.6924,-1.6937,-1.6949,-1.6995,-1.701,-1.7067,-1.7072,-1.7079,-1.7101,-1.7103,-1.7148,-1.7155,-1.7178,-1.722,-1.723,-1.7242,-1.7232,-1.7329,-1.733,-1.7331,-1.7317,-1.7317,-1.7318,0,0,0,0,0,-1.6919,-1.6942,-1.695,-1.6961,-1.7026,-1.7068,-1.7076,-1.7102,-1.7102,-1.7114,-1.7142,-1.7153,-1.7234,-1.7224,-1.7235,-1.7248,-1.7328,-1.733,-1.7331,-1.7316,-1.7317,-1.7318,0,0,0,0,0,0,-1.6896,-1.6948,-1.6958,-1.6995,-1.7027,-1.7072,-1.7089,-1.7102,-1.7135,-1.7135,-1.7166,-1.7176,-1.7213,-1.7234,-1.7222,-1.7283,-1.7282,-1.7286,-1.7267,-1.7268,-1.7269,-1.7263,-1.7235,0,0,0,0,0,-1.6895,-1.6925,-1.6969,-1.6998,-1.7013,-1.7049,-1.7068,-1.7085,-1.7119,-1.7133,-1.7163,-1.7195,-1.7229,-1.725,-1.7282,-1.732,-1.7331,-1.7335,-1.7336,-1.7336,-1.7339,-1.7362,-1.7365,-1.7337,-1.7337,-1.7337,0,0,-1.6894,-1.6926,-1.6943,-1.6994,-1.7021,-1.7051,-1.706,-1.7091,-1.7115,-1.7138,-1.7177,-1.72,-1.7239,-1.7277,-1.7296,-1.7297,-1.7349,-1.7338,-1.7338,-1.7341,-1.7364,-1.7366,-1.7369,-1.7338,-1.7338,-1.7337,0,0,-1.6907,-1.6934,-1.6962,-1.6989,-1.703,-1.7053,-1.706,-1.7104,-1.712,-1.716,-1.7178,-1.7207,-1.7263,-1.729,-1.7311,-1.7337,-1.7349,-1.7347,-1.735,-1.7373,-1.7375,-1.7377,-1.7387,-1.739,-1.7349,-1.7349,-1.7349,0,-1.6901,-1.6947,-1.6975,-1.7006,-1.7029,-1.7052,-1.7081,-1.7106,-1.7155,-1.717,-1.717,-1.7242,-1.727,-1.7316,-1.7322,-1.7338,-1.7348,-1.7342,-1.7372,-1.7375,-1.7377,-1.7387,-1.7391,-1.7349,-1.7349,-1.7349,-1.7349,0,-1.6938,-1.697,-1.6988,-1.7035,-1.706,-1.709,-1.7123,-1.7145,-1.716,-1.7184,-1.7225,-1.7259,-1.73,-1.7312,-1.7327,-1.7361,-1.7361,-1.7366,-1.7366,-1.7379,-1.7389,-1.7393,-1.7348,-1.7348,-1.7349,-1.7349,0,0,-1.6938,-1.7002,-1.7008,-1.703,-1.7077,-1.7103,-1.7135,-1.7175,-1.7193,-1.7227,-1.7255,-1.7302,-1.7308,-1.7332,-1.7351,-1.7371,-1.7391,-1.7374,-1.7375,-1.7377,-1.7432,-1.7428,-1.7432,-1.7399,-1.74,-1.7401,-1.7429,0,-1.6959,-1.7016,-1.7043,-1.7088,-1.7119,-1.7142,-1.717,-1.7203,-1.7226,-1.7256,-1.7282,-1.7316,-1.732,-1.7335,-1.7356,-1.7384,-1.7402,-1.7382,-1.7426,-1.7427,-1.7416,-1.7437,-1.7433,-1.7457,-1.7433,-1.7434,-1.7434,0,-1.699,-1.7024,-1.7073,-1.7118,-1.7132,-1.7156,-1.7196,-1.7224,-1.7262,-1.7278,-1.7306,-1.7324,-1.7359,-1.7357,-1.7406,-1.7392,-1.7412,-1.7428,-1.743,-1.7436,-1.7432,-1.7444,-1.7466,-1.747,-1.744,-1.744,-1.7439,0,-1.6986,-1.7044,-1.7082,-1.71,-1.7153,-1.717,-1.7193,-1.723,-1.7253,-1.7288,-1.7304,-1.7342,-1.7363,-1.7393,-1.7422,-1.7417,-1.7469,-1.7468,-1.7484,-1.7483,-1.7494,-1.7493,-1.752,-1.7505,-1.7505,-1.7505,-1.7505,0,-1.7007,-1.7036,-1.7081,-1.7104,-1.7138,-1.7169,-1.7202,-1.7227,-1.726,-1.7289,-1.7311,-1.7338,-1.7374,-1.7405,-1.7428,-1.7466,-1.7475,-1.749,-1.7495,-1.7488,-1.7486,-1.7502,-1.7501,-1.7506,-1.7506,-1.7506,-1.7506,0,-1.7008,-1.704,-1.7082,-1.7129,-1.7142,-1.7165,-1.7206,-1.723,-1.7255,-1.7291,-1.7301,-1.7341,-1.7379,-1.7411,-1.7461,-1.7476,-1.7517,-1.7523,-1.7504,-1.7507,-1.7521,-1.752,-1.756,-1.7567,-1.7546,-1.7547,-1.7547,0,-1.7019,-1.7043,-1.7093,-1.7114,-1.7137,-1.717,-1.7194,-1.7226,-1.725,-1.7296,-1.7314,-1.7354,-1.7388,-1.7448,-1.7482,-1.7521,-1.7529,-1.754,-1.7534,-1.7527,-1.753,-1.7528,-1.7532,-1.754,-1.754,-1.7541,-1.7541,0,-1.7036,-1.7051,-1.7084,-1.7124,-1.7152,-1.7185,-1.7218,-1.7234,-1.7272,-1.7298,-1.7338,-1.7364,-1.7416,-1.7456,-1.7499,-1.7523,-1.7539,-1.7542,-1.7548,-1.7541,-1.7529,-1.7537,-1.7506,-1.7541,-1.7541,-1.7541,-1.7541,-1.7541,-1.7044,-1.7066,-1.7105,-1.7143,-1.7171,-1.7202,-1.7227,-1.7256,-1.729,-1.7335,-1.7351,-1.7392,-1.7431,-1.749,-1.7515,-1.7548,-1.755,-1.7558,-1.756,-1.7562,-1.7561,-1.7524,-1.7556,-1.7556,-1.7556,-1.7556,-1.7556,0,-1.7062,-1.7089,-1.7123,-1.7169,-1.7199,-1.7211,-1.7249,-1.7273,-1.7309,-1.7344,-1.7377,-1.7424,-1.7463,-1.75,-1.7541,-1.7561,-1.7569,-1.7571,-1.757,-1.7576,-1.7557,-1.7548,-1.7564,-1.7564,-1.7564,-1.7564,-1.7564,-1.7564,-1.7076,-1.7115,-1.7134,-1.7189,-1.7215,-1.7256,-1.7277,-1.7306,-1.7334,-1.7385,-1.7418,-1.7442,-1.7478,-1.7523,-1.756,-1.757,-1.7584,-1.7584,-1.7596,-1.7578,-1.7577,-1.7576,-1.7568,-1.7587,-1.7587,-1.7612,-1.7613,-1.7613]}]]